******************************************************************************* JPL/HORIZONS Utsunomiya-Jones (C/2000 W1) 2025-Dec-12 17:54:45 Rec #:90002693 (+COV) Soln.date: 2021-Apr-15_23:30:08 # obs: 440 (2000-2001) IAU76/J2000 helio. ecliptic osc. elements (au, days, deg., period=Julian yrs): EPOCH= 2451889.5 ! 2000-Dec-11.0000000 (TDB) RMSW= n.a. EC= 1.000001769662552 QR= .3211811790223707 TP= 2451905.0592705449 OM= 10.76595996173393 W= 51.50886753780876 IN= 160.1654345803042 A= -181492.8945914923 MA= -1.9833705737131E-7 ADIST= 9.999999E99 PER= 9.999999E99 N= 1.3E-8 ANGMOM= .01378706 DAN= .39594 DDN= 1.70115 L= 320.9748492 B= 15.4011768 MOID= .100655 TP= 2000-Dec-26.5592705449 Comet physical (GM= km^3/s^2; RAD= km): GM= n.a. RAD= n.a. M1= 12.6 M2= 20.5 k1= 10. k2= 5. PHCOF= .030 COMET comments 1: soln ref.= JPL#23, data arc: 2000-11-26 to 2001-01-23 2: k1=10., k2=5., phase coef.=0.03; ******************************************************************************* ******************************************************************************* Ephemeris / WWW_USER Fri Dec 12 17:54:45 2025 Pasadena, USA / Horizons ******************************************************************************* Target body name: Utsunomiya-Jones (C/2000 W1) {source: JPL#23} Center body name: Earth (399) {source: DE441} Center-site name: GEOCENTRIC ******************************************************************************* Start time : A.D. 2000-Dec-16 00:00:00.0000 UT Stop time : A.D. 2000-Dec-17 00:00:00.0000 UT Step-size : 2880 minutes ******************************************************************************* Target pole/equ : undefined Target radii : undefined Center geodetic : 0.0, 0.0, -6378.137 {E-lon(deg),Lat(deg),Alt(km)} Center cylindric: 0.0, 0.0, 0.0 {E-lon(deg),Dxy(km),Dz(km)} Center pole/equ : ITRF93 {East-longitude positive} Center radii : 6378.137, 6378.137, 6356.752 km {Equator_a, b, pole_c} Target primary : Sun Vis. interferer : MOON (R_eq= 1737.400) km {source: DE441} Rel. light bend : Sun {source: DE441} Rel. lght bnd GM: 1.3271E+11 km^3/s^2 Small-body perts: Yes {source: SB441-N16} Atmos refraction: NO (AIRLESS) RA format : HMS Time format : CAL Calendar mode : Mixed Julian/Gregorian EOP file : eop.251212.p260310 EOP coverage : DATA-BASED 1962-JAN-20 TO 2025-DEC-12. PREDICTS-> 2026-MAR-09 Units conversion: 1 au= 149597870.700 km, c= 299792.458 km/s, 1 day= 86400.0 s Table cut-offs 1: Elevation (-90.0deg=NO ),Airmass (>38.000=NO), Daylight (NO ) Table cut-offs 2: Solar elongation ( 0.0,180.0=NO ),Local Hour Angle( 0.0=NO ) Table cut-offs 3: RA/DEC angular rate ( 0.0=NO ) ******************************************************************************* Initial IAU76/J2000 heliocentric ecliptic osculating elements (au, days, deg.): EPOCH= 2451889.5 ! 2000-Dec-11.0000000 (TDB) RMSW= n.a. EC= 1.000001769662552 QR= .3211811790223707 TP= 2451905.0592705449 OM= 10.76595996173393 W= 51.50886753780876 IN= 160.1654345803042 Equivalent ICRF heliocentric cartesian coordinates (au, au/d): X= 4.267344456061283E-01 Y= 3.408686329823480E-01 Z= 5.056639760778035E-02 VX=-7.407111250170191E-04 VY=-3.275928467478365E-02 VZ=-2.296118358357083E-03 Comet physical (GM= km^3/s^2; RAD= km): GM= n.a. RAD= n.a. M1= 12.6 M2= 20.5 k1= 10. k2= 5. PHCOF= .030 ********************************************************************************************************************************************* Date__(UT)__HR:MN r rdot delta deldot VmagSn VmagOb S-O-T /r RNG_3sigma RNGRT_3sig ********************************************************************************************************************************************* $$SOE 2000-Dec-16 00:00 0.446507848743 -33.3964493 0.86820380348333 63.8873884 63.0367373 67.8686162 26.9772 /T 484.0662 0.0003732 $$EOE ********************************************************************************************************************************************* Column meaning: TIME Times PRIOR to 1962 are UT1, a mean-solar time closely related to the prior but now-deprecated GMT. Times AFTER 1962 are in UTC, the current civil or "wall-clock" time-scale. UTC is kept within 0.9 seconds of UT1 using integer leap-seconds for 1972 and later years. Conversion from the internal Barycentric Dynamical Time (TDB) of solar system dynamics to the non-uniform civil UT time-scale requested for output has not been determined for UTC times after the next July or January 1st. Therefore, the last known leap-second is used as a constant over future intervals. Time tags refer to the UT time-scale conversion from TDB on Earth regardless of observer location within the solar system, although clock rates may differ due to the local gravity field and no analog to "UT" may be defined for that location. Any 'b' symbol in the 1st-column denotes a B.C. date. First-column blank (" ") denotes an A.D. date. CALENDAR SYSTEM Mixed calendar mode was active such that calendar dates after AD 1582-Oct-15 (if any) are in the modern Gregorian system. Dates prior to 1582-Oct-5 (if any) are in the Julian calendar system, which is automatically extended for dates prior to its adoption on 45-Jan-1 BC. The Julian calendar is useful for matching historical dates. The Gregorian calendar more accurately corresponds to the Earth's orbital motion and seasons. A "Gregorian-only" calendar mode is available if such physical events are the primary interest. NOTE: "n.a." in output means quantity "not available" at the print-time. STATISTICAL UNCERTAINTIES Output includes formal +/- 3 standard-deviation statistical orbit uncertainty quantities. There is a 99.7% (1-D) or 98.9% (2-D) chance the actual value is within given bounds. These statistical calculations assume observational data errors are random. If there are systematic biases (such as timing, reduction or star-catalog errors), results can be optimistic. Because the epoch covariance is mapped using linearized variational partial derivatives, results can also be optimistic for times far from the solution epoch, particularly for objects having close planetary encounters. 'r rdot' = The Sun's apparent range ("r", light-time aberrated) and range-rate ("rdot") relative to the target center, as seen by the observer. A positive "rdot" means the target center was moving away from the Sun, negative means moving toward the Sun. Units: AU and KM/S 'delta deldot' = Apparent range ("delta", light-time aberrated) and range-rate ("delta-dot") of the target center relative to the observer. A positive "deldot" means the target center is moving away from the observer, negative indicates movement toward the observer. Units: AU and KM/S 'VmagSn VmagOb' = Magnitude of target centers' velocity with respect to the Sun ("VmagSn") and the observer ("VmagOb") at the time light left the target center to be observed (print time minus down-leg light-time). These are absolute values of the velocity vectors (total speeds) and do NOT indicate direction of motion. Units: KM/S 'S-O-T /r' = Sun-Observer-Target apparent SOLAR ELONGATION ANGLE seen from the observers' location at print-time. The '/r' column provides a code indicating the targets' apparent position relative to the Sun in the observers' sky, as described below: Case A: For an observing location on the surface of a rotating body, that body rotational sense is considered: /T indicates target TRAILS Sun (evening sky: rises and sets AFTER Sun) /L indicates target LEADS Sun (morning sky: rises and sets BEFORE Sun) Case B: For an observing point that does not have a rotational model (such as a spacecraft), the "leading" and "trailing" condition is defined by the observers' heliocentric ORBITAL motion: * If continuing in the observers' current direction of heliocentric motion would encounter the targets' apparent longitude first, followed by the Sun's, the target LEADS the Sun as seen by the observer. * If the Sun's apparent longitude would be encountered first, followed by the targets', the target TRAILS the Sun. Two other codes can be output: /* indicates observer is Sun-centered (undefined) /? Target is aligned with Sun center (no lead or trail) The S-O-T solar elongation angle is numerically the minimum separation angle of the Sun and target in the sky in any direction. It does NOT indicate the amount of separation in the leading or trailing directions, which would be defined along the equator of a spherical coordinate system. Units: DEGREES 'RNG_3sigma RNGRT_3sig' = Range and range rate (radial velocity) formal 3-standard-deviation uncertainties. Units: KM, KM/S Computations by ... Solar System Dynamics Group, Horizons On-Line Ephemeris System 4800 Oak Grove Drive, Jet Propulsion Laboratory Pasadena, CA 91109 USA General site: https://ssd.jpl.nasa.gov/ Mailing list: https://ssd.jpl.nasa.gov/email_list.html System news : https://ssd.jpl.nasa.gov/horizons/news.html User Guide : https://ssd.jpl.nasa.gov/horizons/manual.html Connect : browser https://ssd.jpl.nasa.gov/horizons/app.html#/x API https://ssd-api.jpl.nasa.gov/doc/horizons.html command-line telnet ssd.jpl.nasa.gov 6775 e-mail/batch https://ssd.jpl.nasa.gov/ftp/ssd/horizons_batch.txt scripts https://ssd.jpl.nasa.gov/ftp/ssd/SCRIPTS Author : Jon.D.Giorgini@jpl.nasa.gov ********************************************************************************************************************************************* !$$SOF COMMAND = '2000 W1' QUANTITIES = '19,20,22,23,39' START_TIME = '2000-12-16 STEP_SIZE = '2 day' STOP_TIME = '2000-12-17'